CW8826 Weather Reports


Display with metric or nautical units.
time (UTC)temp
F
wind
direction
speed
MPH
gust
MPH
rain 1hr
in
rain 24hr
in
rain mn
in
humidity
%
barometer
mb
20260504050017 63 68 13.0 18.0 0.00 0.00 0.00 22 1010.8
20260504045017 62 113 8.0 17.0 0.00 0.00 0.00 24 1010.3
20260504044037 63 90 10.0 17.0 0.00 0.00 0.00 23 1010.7
20260504043017 62 113 10.0 17.0 0.00 0.00 0.00 23 1010.2
20260504042018 62 90 9.0 17.0 0.00 0.00 0.00 25 1010.0
20260504041017 62 113 10.0 16.0 0.00 0.00 0.00 25 1010.3
20260504040037 62 113 12.0 18.0 0.00 0.00 0.00 26 1009.9
20260504035017 62 113 10.0 17.0 0.00 0.00 0.00 25 1009.9
20260504034018 64 90 9.0 16.0 0.00 0.00 0.00 23 1010.2
20260504033017 64 90 10.0 15.0 0.00 0.00 0.00 23 1010.1
20260504032017 64 113 10.0 15.0 0.00 0.00 0.00 24 1009.4
20260504031017 64 90 11.0 16.0 0.00 0.00 0.00 24 1009.5
20260504030037 64 90 9.0 15.0 0.00 0.00 0.00 24 1009.5
20260504025037 65 90 11.0 16.0 0.00 0.00 0.00 23 1009.0
20260504024017 65 90 8.0 14.0 0.00 0.00 0.00 24 1009.1
20260504023017 65 113 9.0 14.0 0.00 0.00 0.00 25 1009.0
20260504022017 65 113 9.0 14.0 0.00 0.00 0.00 24 1009.3
20260504021057 65 113 9.0 13.0 0.00 0.00 0.00 25 1009.3
20260504020017 66 113 6.0 10.0 0.00 0.00 0.00 24 1009.4
20260504015017 67 113 2.0 4.0 0.00 0.00 0.00 22 1010.0
20260504014057 68 90 2.0 3.0 0.00 0.00 0.00 19 1010.1
20260504013017 69 68 1.0 2.0 0.00 0.00 0.00 19 1010.6
20260504012017 69 68 1.0 3.0 0.00 0.00 0.00 18 1010.2
20260504011017 70 0 1.0 3.0 0.00 0.00 0.00 18 1010.3
20260504010017 70 0 2.0 5.0 0.00 0.00 0.00 16 1010.3
20260504005017 70 315 2.0 4.0 0.00 0.00 0.00 17 1010.5
20260504004017 71 338 3.0 6.0 0.00 0.00 0.00 16 1010.5
20260504003017 71 338 4.0 7.0 0.00 0.00 0.00 15 1010.5
20260504002038 72 0 4.0 6.0 0.00 0.00 0.00 16 1011.2
20260504001017 72 0 3.0 7.0 0.00 0.00 0.00 15 1011.3
20260504000017 72 315 1.0 2.0 0.00 0.00 0.00 15 1011.3
20260503235017 72 315 1.0 3.0 0.00 0.00 0.00 14 1010.9
20260503234017 72 315 2.0 4.0 0.00 0.00 0.00 14 1011.0
20260503233057 72 315 3.0 8.0 0.00 0.00 0.00 14 1011.1
20260503232018 72 315 4.0 7.0 0.00 0.00 0.00 13 1011.4
20260503231017 73 315 3.0 7.0 0.00 0.00 0.00 14 1011.5
20260503230017 73 315 5.0 9.0 0.00 0.00 0.00 13 1011.6
20260503225017 74 315 4.0 9.0 0.00 0.00 0.00 14 1011.7
20260503224017 74 0.0 3.0 0.00 0.00 0.00 12 1011.9
20260503223017 74 270 1.0 5.0 0.00 0.00 0.00 11 1012.0
20260503222017 74 248 2.0 8.0 0.00 0.00 0.00 12 1012.6
20260503221017 74 270 3.0 6.0 0.00 0.00 0.00 14 1012.8
20260503220017 73 315 2.0 5.0 0.00 0.00 0.00 13 1012.7
20260503215037 73 270 2.0 4.0 0.00 0.00 0.00 13 1012.9
20260503214017 73 225 1.0 3.0 0.00 0.00 0.00 11 1013.0
20260503213017 73 225 3.0 8.0 0.00 0.00 0.00 12 1013.3
20260503212017 73 158 2.0 5.0 0.00 0.00 0.00 11 1013.4
20260503211017 73 270 3.0 7.0 0.00 0.00 0.00 12 1013.6
20260503210017 73 270 3.0 7.0 0.00 0.00 0.00 12 1013.8
20260503205037 73 248 5.0 12.0 0.00 0.00 0.00 13 1014.0
20260503204017 74 248 5.0 12.0 0.00 0.00 0.00 12 1014.0
20260503203037 74 248 5.0 13.0 0.00 0.00 0.00 13 1014.2
20260503202017 73 0 3.0 8.0 0.00 0.00 0.00 16 1014.3
20260503201018 72 315 3.0 7.0 0.00 0.00 0.00 14 1014.1
20260503200017 71 315 3.0 7.0 0.00 0.00 0.00 15 1014.4
20260503195017 71 315 2.0 6.0 0.00 0.00 0.00 13 1014.5
20260503194017 71 293 3.0 6.0 0.00 0.00 0.00 15 1014.6
20260503193017 71 248 3.0 6.0 0.00 0.00 0.00 14 1014.7
20260503192037 71 248 6.0 9.0 0.00 0.00 0.00 14 1014.9
20260503191017 72 225 5.0 11.0 0.00 0.00 0.00 14 1015.1
20260503190037 73 270 4.0 13.0 0.00 0.00 0.00 14 1015.5
20260503185057 73 90 4.0 11.0 0.00 0.00 0.00 14 1016.0
20260503184037 73 315 2.0 5.0 0.00 0.00 0.00 16 1016.1
20260503183017 71 248 4.0 12.0 0.00 0.00 0.00 18 1016.1
20260503182038 70 248 4.0 8.0 0.00 0.00 0.00 18 1015.9
20260503181037 71 248 3.0 5.0 0.00 0.00 0.00 21 1016.1
20260503180017 71 158 1.0 4.0 0.00 0.00 0.00 20 1016.1
20260503175017 71 248 2.0 6.0 0.00 0.00 0.00 21 1016.6
20260503174017 70 248 2.0 5.0 0.00 0.00 0.00 20 1016.4
20260503173037 69 293 2.0 5.0 0.00 0.00 0.00 19 1016.5
20260503172016 68 225 2.0 7.0 0.00 0.00 0.00 19 1016.4
20260503171016 68 90 1.0 4.0 0.00 0.00 0.00 18 1016.4
20260503131016 58 113 7.0 15.0 0.00 0.00 0.00 22 1017.0
20260503081017 58 90 9.0 17.0 0.00 0.00 0.00 24 1018.2